Location: Gerlach
(40.6516°N, 119.3568°W)
Time: 16:20:50
(UTC-07:00)

ITAMSAT 1 - Pass Details

Date: 04 August 2024
Orbit: 782 x 795 km, 98.8° (Epoch: 14 September)

Event Time Altitude Azimuth Distance (km) Brightness Sun altitude
Exits shadow 21:32:19 14° 166° (SSE) 2,069 9.4 -14.5°
Maximum altitude 21:36:49 88° 253° (WSW) 798 7.7 -15.2°
Drops below altitude 10° 21:42:04 10° 346° (NNW) 2,369 10.9 -15.9°
Sets 21:44:24 0° 347° (NNW) 3,304 11.8 -16.3°
